This is the latest recevied weather packets stored in our database for station/object KE8CZD. If no packets are shown the sender has not sent any weather packets the latest 10 day(s).
| Time | Temp. | Humidity | Pressure | Rain* | Wind** | Luminosity | Snow |
|---|---|---|---|---|---|---|---|
| 1777513724 | 7.78° C | 93% | 1009.8 hPa | 0 mm | - | - | - |
| 1777513005 | 7.78° C | 92% | 1009.5 hPa | 0 mm | - | - | - |
| 1777512644 | 7.78° C | 92% | 1009.6 hPa | 0 mm | - | - | - |
| 1777512284 | 7.78° C | 91% | 1009.6 hPa | 0 mm | - | - | - |
| 1777511924 | 7.78° C | 91% | 1009.5 hPa | 0 mm | - | - | - |
| 1777511564 | 7.78° C | 91% | 1009.3 hPa | 0 mm | - | - | - |
| 1777511204 | 7.78° C | 90% | 1009.3 hPa | 0 mm | - | - | - |
| 1777510844 | 8.33° C | 90% | 1009.1 hPa | 0 mm | - | - | - |
| 1777510484 | 8.33° C | 90% | 1009 hPa | 0 mm | - | - | - |
| 1777510124 | 8.33° C | 89% | 1009 hPa | 0 mm | - | - | - |
| 1777509764 | 8.89° C | 88% | 1008.8 hPa | 0 mm | - | - | - |
| 1777509404 | 8.89° C | 88% | 1008.7 hPa | 0 mm | - | - | - |
| 1777509044 | 9.44° C | 87% | 1008.6 hPa | 0 mm | - | - | - |
| 1777508684 | 9.44° C | 85% | 1008.4 hPa | 0 mm | - | - | - |
| 1777508324 | 9.44° C | 85% | 1008.3 hPa | 0 mm | - | - | - |
| 1777507964 | 9.44° C | 84% | 1008.4 hPa | 0 mm | - | - | - |
| 1777507605 | 9.44° C | 84% | 1008.2 hPa | 0 mm | - | - | - |
| 1777507244 | 9.44° C | 82% | 1008.2 hPa | 0 mm | - | - | - |
| 1777507075 | 10° C | 82% | 1008.1 hPa | 0 mm | - | - | - |
| 1777506721 | 10° C | 83% | 0 hPa | 0 mm | - | - | - |
| 1777506525 | 10° C | 85% | 1008.1 hPa | 0 mm | - | - | - |
| 1777506348 | 10° C | 85% | 1008.1 hPa | 0 mm | - | - | - |
| 1777505988 | 10° C | 88% | 1008 hPa | 0 mm | - | - | - |
| 1777505628 | 10.56° C | 90% | 1007.8 hPa | 0 mm | - | - | - |
| 1777505268 | 10.56° C | 90% | 1007.9 hPa | 0 mm | - | - | - |
* Rain latest hour (hover to see other rain measurements)
** Current wind speed in m/s (hover to see current wind gust speed)